TimeMST,TemperatureF,Dew PointF,Humidity,Sea Level PressureIn,VisibilityMPH,Wind Direction,Wind SpeedMPH,Gust SpeedMPH,PrecipitationIn,Events,Conditions,WindDirDegrees,DateUTC
12:53 AM,21.0,16.0,81,29.85,10.0,WSW,8.1,-,N/A,,Clear,250,2013-01-08 07:53:00
1:53 AM,23.0,17.1,78,29.86,10.0,West,4.6,-,N/A,,Clear,270,2013-01-08 08:53:00
2:53 AM,21.0,16.0,81,29.84,10.0,WSW,9.2,-,N/A,,Clear,240,2013-01-08 09:53:00
3:53 AM,21.9,16.0,78,29.84,10.0,WNW,9.2,-,N/A,,Clear,290,2013-01-08 10:53:00
4:53 AM,21.0,16.0,81,29.86,10.0,WSW,8.1,-,N/A,,Clear,250,2013-01-08 11:53:00
5:53 AM,17.1,12.0,81,29.89,10.0,West,6.9,-,N/A,,Clear,280,2013-01-08 12:53:00
6:53 AM,21.2,15.8,80,29.81,10.0,WNW,9.2,-,N/A,,Clear,300,2013-01-08 13:53:00
7:53 AM,26.6,17.6,69,29.86,10.0,WNW,6.9,-,N/A,,Clear,300,2013-01-08 14:53:00
8:53 AM,28.9,19.9,69,29.99,10.0,NW,8.1,-,N/A,,Clear,320,2013-01-08 15:53:00
9:53 AM,41.0,24.1,51,29.97,10.0,NNW,10.4,-,N/A,,Clear,330,2013-01-08 16:53:00
10:53 AM,43.0,24.1,47,29.97,10.0,NNW,12.7,-,N/A,,Clear,330,2013-01-08 17:53:00
11:53 AM,46.0,24.1,42,29.95,10.0,NNW,13.8,23.0,N/A,,Clear,340,2013-01-08 18:53:00
12:53 PM,48.0,26.1,42,29.98,10.0,NNW,15.0,-,N/A,,Clear,340,2013-01-08 19:53:00
1:53 PM,50.0,27.0,41,30.01,10.0,NNW,12.7,-,N/A,,Clear,340,2013-01-08 20:53:00
2:53 PM,48.9,26.1,41,30.05,10.0,North,10.4,-,N/A,,Clear,360,2013-01-08 21:53:00
3:53 PM,48.0,28.0,46,30.08,10.0,Calm,Calm,-,N/A,,Clear,0,2013-01-08 22:53:00
4:53 PM,36.0,26.1,67,30.14,10.0,NNW,3.5,-,N/A,,Clear,330,2013-01-08 23:53:00
5:53 PM,28.9,24.1,82,30.20,10.0,Calm,Calm,-,N/A,,Clear,0,2013-01-09 00:53:00
6:53 PM,27.0,21.9,81,30.22,10.0,WSW,6.9,-,N/A,,Clear,250,2013-01-09 01:53:00
7:53 PM,30.9,24.1,76,30.23,10.0,WSW,9.2,-,N/A,,Clear,250,2013-01-09 02:53:00
8:53 PM,30.0,24.1,79,30.25,10.0,West,10.4,-,N/A,,Clear,260,2013-01-09 03:53:00
9:53 PM,28.9,23.0,78,30.25,10.0,WNW,8.1,-,N/A,,Clear,290,2013-01-09 04:53:00
10:53 PM,30.0,21.9,72,30.28,10.0,WNW,8.1,-,N/A,,Clear,290,2013-01-09 05:53:00
11:53 PM,23.0,19.0,85,30.30,10.0,West,6.9,-,N/A,,Clear,260,2013-01-09 06:53:00